Sparta, WI

9:38 PM CDT on August 04, 2015 (GMT -0500)
Sparta-Fort McCoy | | Change Station
CLOSE
Current Station
Airport
Location: Sparta,
Elevation: 837 ft
Nearby Weather Stations

Elev 837 ft 43.96 °N, 90.74 °W | Updated 23 minutes ago

Clear
Clear
62 °F
Feels Like 62 °F
N
0
Wind Variable Wind from North

Today
High -- | Low -- °F
--% Chance of Precip.
Yesterday
High -- | Low -- °F
Precip. -- in
5:54 AM 8:23 PM
Waning Gibbous, 72% visible
Pressure 30.02 in
Visibility 10.0 miles
Clouds Clear
Dew Point 55 °F
Humidity 78%
Rainfall 0.00 in
Snow Depth Not available.
UV 0 out of 12
Pollen 6.90 out of 12
Air Quality Not available.
Flu Activity Not available.
METAR KCMY 050215Z AUTO 00000KT 10SM CLR 17/13 A3002 RMK AO2 T01650126

More Conditions Fewer Conditions

Pressure 30.02 in
Visibility 10.0 miles
Clouds Clear
Dew Point 55 °F
Humidity 78%
Rainfall 0.00 in
Snow Depth Not available.
UV 0 out of 12
Pollen 6.90 out of 12
Air Quality Not available.
Flu Activity Not available.
METAR KCMY 050215Z AUTO 00000KT 10SM CLR 17/13 A3002 RMK AO2 T01650126

More Conditions Fewer Conditions

10-Day Weather Forecast

×

Almanac

Astronomy

Aug. 04, 2015 Rise Set
Actual Time
Civil Twilight
Nautical Twilight
Astronomical Twilight
Moon
Length of Visible Light
Length of Day
Tomorrow will be .
, % of the Moon is Illuminated

Today's Extremes

State Highs State Lows

Community

WunderPhotos

Upload Photos

1,844,087 photos uploaded!

WunderBlogs® & News

Nearby

Air Quality

  Air Quality AQ Index Pollutant
Not available.

Snow Depth

Station Depth Elevation

Earthquake Activity

City Distance Mag. Time & Date
Minimum magnitude displayed is 2.5.

Coastal Water Temperatures

Place Temperature

Stations

Nearby Weather Stations

Station Location Temp. Windchill Dew Point Humidity Wind Precip. Elev Updated Type